User: anonymous   Login
Location: ??????
(42.0089°N, 44.3281°E)
Time: 10:27:23
(UTC+00:00)
Language:

Okean 1-7 Rocket - Orbit

View from above orbital plane
View from above orbital plane
View from above satellite
View from above satellite

Ground track
Ground track

The orbit data is extracted from the following two-line orbital elements,

1 23318U 94066B   22271.27113807  .00000353  00000-0  44286-4 0  9994
2 23318  82.5444 179.4158 0024685  43.8477 316.4689 14.79068049507499
Epoch (UTC): 28 September 2022 06:30:26
Eccentricity: 0.0024685
inclination: 82.5444°
perigee height: 615 km
apogee height: 649 km
right ascension of ascending node: 179.4158°
argument of perigee: 43.8477°
revolutions per day: 14.79068049
mean anomaly at epoch: 316.4689°
orbit number at epoch: 50749

The dashed part of the orbit path shows where the satellite is in the earth's shadow,  

DLR